JCSAT-5A

Last updated on Thu Sep 10 2026 00:02:55 GMT+0000 (Coordinated Universal Time)

1 29045U 06010A 26252.60669846 -.00000348 00000+0 00000+0 0 9993 2 29045 1.3204 83.0980 0001586 47.3705 208.6499 1.00269165 74612
UTC large
Height (km)
Speed (km/s)
/
Latitude / Longitude
Inclination (degrees)
Orbital Period (minutes)
Azimuth
Elevation
Range (km)
Doppler Factor

Next 0 passes for location: London (51.5072 / 0.1276)

No passes found over London.
JCSAT-5A